Voltar ao catálogo

POPACS 2

AtivoCiênciaPO
NORAD 39269·PAYLOAD·🇺🇸 United States

Lançado Sep 29, 2013 de Vandenberg Space Force Base

Loading…

Próximas Passagens (próximas 24 horas)

TLE

AtualizadoSource: Space-Track

Época: Sep 14, 2026, 09:37 UTC

1 39269U 13055E   26257.40098080  .00010240  00000-0  17031-3 0  9996
2 39269  80.9914  41.8459 0405632 266.7735  88.7011 14.93867772676524

Acompanhe POPACS 2 em tempo real com AllMySat

Download on the App Store